Regional Weather Roundup
Issued by NWS Bismarck, ND

Home | Current Version | Previous Version | Text Only | Print | Product List | Glossary On
Versions: 1 2 3 4 5 6 7 8 9 10 11 12 13 14 15 16 17 18 19 20 21 22 23 24 25 26 27 28 29 30 31 32 33 34 35 36 37 38 39 40 41 42 43 44 45 46 47 48 49 50
000
ASUS43 KBIS 060110
RWRBIS

NWR BROADCAST TEXT
NATIONAL WEATHER SERVICE BISMARCK ND
800 PM CDT THU MAY 05 2016

NOTE: "FAIR" INDICATES FEW OR NO CLOUDS BELOW 12,000 FEET WITH NO
SIGNIFICANT WEATHER AND/OR OBSTRUCTIONS TO VISIBILITY.


CITY           SKY/WX    TMP DP  RH WIND       PRES   REMARKS
WILLISTON      CLOUDY    85  42  22 SW9       29.73F
MINOT          PTCLDY    87  38  17 S7        29.72F
MINOT AFB      PTCLDY    85  41  20 SW6       29.71S
BISMARCK       CLOUDY    82  42  24 SW6       29.77F
DICKINSON      CLOUDY    81  38  21 CALM      29.79S
GARRISON         N/A     77  42  28 S5        29.75F
HETTINGER ARPT PTCLDY    76  55  48 S5        29.83F
JAMESTOWN      CLEAR     83  40  21 SW10      29.76S
BEACH          FAIR      82  32  16 SW9       29.82F
CARRINGTON     FAIR      84  41  21 W7        29.78F
HAZEN          FAIR      73  46  38 S7        29.78S
LINTON         FAIR      79  57  47 S7        29.81F
MANDAN         FAIR      79  41  25 S7        29.79S
OAKES            N/A    N/A N/A N/A MISG        N/A
RUGBY          FAIR      81  41  24 SW10      29.72S
STANLEY        FAIR      81  41  24 SW8       29.78S
TIOGA          MOCLDY    84  37  18 SW7       29.80S
WATFORD CITY   FAIR      82  45  26 S3        29.76S
$$

CITY           SKY/WX    TMP DP  RH WIND       PRES   REMARKS
GRAND FORKS    PTCLDY    85  35  16 W9        29.71S
GRAND FORKS AF CLEAR     86  36  16 SW9       29.72S
DEVILS LAKE    CLEAR     77  41  27 SW9       29.74F
FARGO          CLEAR     84  38  19 SW13      29.75S
CANDO          FAIR      81  37  21 SW9       29.74S
CAVALIER       FAIR      86  41  20 SW7       29.67S
GRAFTON        FAIR      86  41  20 SW13      29.71S
GWINNER        FAIR      84  39  20 SW12      29.80F
LANGDON        FAIR      82  37  20 SW12      29.72S
ROLLA            N/A     82  37  20 SW13      29.72F
WALHALLA       FAIR      86  41  20 W8        29.67S
$$

CITY           SKY/WX    TMP DP  RH WIND       PRES   REMARKS
ABERDEEN       CLEAR     82  38  20 S15       29.82F
MOBRIDGE       CLEAR     79  32  18 S6        29.77F
BUFFALO          N/A     80  46  30 S9        29.78F
RAPID CITY     CLOUDY    73  52  47 E9        29.85F
GLASGOW        CLOUDY    83  44  25 W6        29.76F
SIDNEY         MOSUNNY   81  48  32 W7        29.75S
WOLF POINT     MOSUNNY   83  46  27 SW6       29.74F
GLENDIVE       MOSUNNY   82  45  26 W8        29.79S
MILES CITY     SUNNY     84  36  18 NW5       29.78F
BAKER          CLOUDY    81  44  27 SE7       29.82F
$$

CITY           SKY/WX    TMP DP  RH WIND       PRES   REMARKS
BILLINGS       PTSUNNY   79  39  23 N7        29.83F
GREAT FALLS    MOSUNNY   69  43  38 N24G35    29.88R
REGINA         MOSUNNY   82  39  21 NW22G30   29.72R
ESTEVAN        PTSUNNY   86  37  17 W13       29.69S
$$




USA.gov is the U.S. government's official web portal to all federal, state and local government web resources and services.